Location: Alpine
(43.1636°N, 111.0180°W)
Time: 04:58:57
(UTC+00:00)

Tiros 1 despin weight - Pass Details

Date: 01 June 2022
Orbit: 591 x 639 km, 48.2° (Epoch: 30 June)

Event Time Altitude Azimuth Distance (km) Brightness Sun altitude
Rises 02:55:07 0° 289° (WNW) 2,871 ? -0.6°
Reaches altitude 10° 02:57:30 10° 295° (WNW) 1,958 ? -1.0°
Maximum altitude 03:01:51 48° 10° (N) 792 ? -1.7°
Drops below altitude 10° 03:06:08 10° 85° (E) 1,930 ? -2.3°
Sets 03:08:29 0° 91° (E) 2,826 ? -2.7°
